Regional Weather Roundup
Issued by NWS

Home | Current Version | Previous Version | Text Only | Print | Product List | Glossary On
Versions: 1 2 3 4 5 6 7 8 9 10 11 12 13 14 15 16 17 18 19 20 21 22 23 24 25 26 27 28 29 30 31 32 33 34 35 36 37 38 39 40 41 42 43 44 45 46 47 48 49 50
000
ASUS43 KDTX 310410
RWRMI
MICHIGAN HOURLY REGIONAL WEATHER ROUNDUP
NATIONAL WEATHER SERVICE DETROIT/PONTIAC MI
1200 AM EDT MON AUG 31 2015

NOTE: "FAIR" INDICATES FEW OR NO CLOUDS BELOW 12,000 FEET WITH NO
SIGNIFICANT WEATHER AND/OR OBSTRUCTION TO VISIBILITY.

MIZ047>049-052>055-059>063-066>070-074>076-081>083-310500-
SOUTHEAST LOWER MICHIGAN

CITY           SKY/WX    TMP DP  RH WIND       PRES   REMARKS
ADRIAN         CLEAR     66  65  96 CALM      30.06S FOG
ALMA           MOCLDY    66  65  97 SW5       30.04R FOG
ANN ARBOR      FOG       63  63 100 CALM      30.05R VSB 1/4
BAD AXE        FOG       61  61  99 CALM      30.03S VSB<1/4
CARO           FOG       61  61 100 CALM      30.03S VSB 1/4
DETROIT CITY   CLEAR     72  68  87 SW3       30.03F
DETROIT        PTCLDY    72  69  90 CALM      30.04F
FLINT          CLEAR     66  62  87 CALM      30.04S FOG
GROSSE ILE     CLEAR     70  66  88 CALM      30.03S
HILLSDALE      FOG       65  65 100 CALM      30.07S VSB 1/4
HOWELL         CLEAR     65  64  96 SW3       30.05S FOG

CITY           SKY/WX    TMP DP  RH WIND       PRES   REMARKS
JACKSON        CLEAR     65  64  97 SW3       30.06S FOG
LAMBERTVILLE     N/A     68  66  92 CALM      30.05S FOG
LANSING        CLEAR     64  63  96 CALM      30.05S
LAPEER         FOG       62  62 100 CALM      30.04S VSB 1/4
MASON          FOG       64  62  91 CALM      30.06S VSB 1/2
MONROE         CLEAR     67  65  94 CALM      30.04S FOG
MT. CLEMENS    CLEAR     68  68 100 CALM      30.02S
PONTIAC        CLEAR     68  66  93 CALM      30.04S
PORT HOPE        N/A     67  65  93 CALM      30.00S
PORT HURON     CLOUDY    66  66 100 CALM      30.03S FOG
TRI CITIES     CLEAR     69  65  86 S6        30.03S
MIDLAND        FOG       63  62  97 CALM      30.02S VSB 1/4
TROY           CLEAR     73  68  83 CALM      30.05S
SAGINAW HB     CLEAR     64  63  94 SW3       30.02S FOG
$$
MIZ043>046-050>051-056>058-064>065-071>073-077>080-310500-
SOUTHWEST LOWER MICHIGAN

CITY           SKY/WX    TMP DP  RH WIND       PRES   REMARKS
BATTLE CREEK   FOG       64  62  93 SW3       30.06F VSB 1
BENTON HARBOR  CLEAR     61  60  97 CALM      30.05S FOG
BIG RAPIDS     CLEAR     63  63  97 NW3       30.03F FOG
COLDWATER      FOG       64  64 100 CALM      30.06F VSB<1/4
FREMONT        FOG       59  59 100 CALM      30.03F VSB 1/2
HOLLAND        FOG       62  60  93 CALM      30.05S VSB 1/4
GRAND RAPIDS   CLOUDY    66  65  96 SW3       30.04F FOG
IONIA          FAIR      62  61  95 SW3       30.04S FOG
KALAMAZOO      FOG       63  61  93 CALM      30.06S VSB 1/4
LUDINGTON      CLEAR     63  61  91 CALM      30.03S FOG
MARSHALL       FOG       63  62  97 CALM      30.06S VSB 1/4
MOUNT PLEASANT FOG       64  62  94 CALM      30.02S VSB 1/2
MUSKEGON       PTCLDY    63  60  90 SE3       30.04S FOG
SOUTH HAVEN    FOG       59  58  96 CALM      30.05S VSB<1/4
$$
MIZ016>042-310500-
NORTHERN LOWER MICHIGAN

CITY           SKY/WX    TMP DP  RH WIND       PRES   REMARKS
ALPENA         CLEAR     63  60  90 SW3       29.98F
BEAVER ISLAND  CLEAR     65  63  92 SW12      29.97S
BELLAIRE       CLEAR     65  63  91 S3        30.00R
CADILLAC       CLEAR     62  60  94 SW3       30.03S
CHARLEVOIX     CLEAR     66  61  86 SW3       30.02R
FRANKFORT      CLEAR     66  64  91 SW5       30.01S
GAYLORD        CLEAR     64  64 100 SW9       30.01S
GRAYLING       CLEAR     64  62  95 SW3       30.02F
HARBOR SPRINGS CLEAR     66  63  89 SW7       29.99R
HOUGHTON LAKE  CLEAR     66  64  93 W5        30.04R
MANISTEE       CLEAR     59  55  88 E3        30.02S
OSCODA         FOG       63  63  99 SW3       29.99F VSB 3/4
PELLSTON       CLEAR     66  61  84 W6        29.98R
ROGERS CITY    CLEAR     64  61  92 SW3       29.99S
TRAVERSE CITY  CLEAR     66  59  78 S3        29.99S
$$
MIZ007>008-015-310500-
EASTERN UPPER MICHIGAN

CITY           SKY/WX    TMP DP  RH WIND       PRES   REMARKS
KINROSS        CLEAR     63  63 100 SW3       29.95S
MACKINAC ISLAN CLEAR     65  64  93 SW12      29.97S
NEWBERRY       PTCLDY    63  63  99 SW10      29.94S FOG
S. S. MARIE    CLOUDY    63  61  93 SE3       29.95S
MUNISING         N/A     70  63  78 SW13      29.91S
$$
MIZ004>006-011>014-085-310500-
CENTRAL UPPER MICHIGAN

CITY           SKY/WX    TMP DP  RH WIND       PRES   REMARKS
MANISTIQUE     CLEAR     63  62  96 S8        29.95S FOG
ESCANABA       CLEAR     64  63  94 SW7       29.94S
MENOMINEE      CLEAR     66  61  82 SW6       29.96S
SAWYER-GWINN   CLEAR     65  62  90 S6        29.94S
$$
MIZ001>003-009>011-084-310500-
WESTERN UPPER MICHIGAN

CITY           SKY/WX    TMP DP  RH WIND       PRES   REMARKS
IRON MOUNTAIN  CLEAR     65  62  90 S5        29.95S
HOUGHTON       CLEAR     66  61  84 W7        29.89S
IRONWOOD       CLEAR     70  64  83 SW10      29.89S
$$

ABBREVIATIONS USED IN REMARKS
   TC - TEMPERATURE IN CELSIUS
  WCI - WIND CHILL INDEX
   HX - HEAT INDEX
  VSB - VISIBILITY




USA.gov is the U.S. government's official web portal to all federal, state and local government web resources and services.